Home   Weather   Salvador   Past weeks

Flag for Brazil Past Weather in Salvador, Bahia, Brazil — Yesterday and Last 2 Weeks

Now
77 °F

Passing clouds.


Feels Like: 78 °F
Forecast: 77 / 85 °F
Wind: 6 mph from Northeast

Location: Salvador Aeroporto

Current Time: Dec 9, 2016 at 7:01:19 am

Latest Report: Dec 9, 2016 at 6:00 am


Visibility: N/A

Pressure: 29.92 "Hg

Humidity: 83%

Dew Point: 72 °F

Location of SalvadorLocation

Past Weather in Salvador — Graph

°F

Salvador Temperature Yesterday

Maximum temperature yesterday: 86 °F (at 10:00 am)
Minimum temperature yesterday: 77 °F (at 4:00 am)
Average temperature yesterday: 81 °F

High & Low Weather Summary for the Past Weeks

 TemperatureHumidityPressure
High88 °F (Dec 4, 11:00 am)100% (Nov 25, 12:00 am)30.01 "Hg (Nov 25, 12:00 am)
Low72 °F (Nov 27, 4:00 am)58% (Nov 26, 11:00 am)29.65 "Hg (Nov 25, 12:00 am)
Average80 °F75%29.91 "Hg
* Reported Nov 24 5:00 am — Dec 9 5:00 am, Salvador, Weather by CustomWeather, © 2016

Note: Actual official high and low records may vary slightly from our data, if they occured in-between our weather recording intervals... More about our weather records

Advertising

Salvador Weather History for the Previous 24 Hours

Scroll right to see more
 ConditionsComfort  
Time TempWeatherWind HumidityBarometerVisibility
5:00 am
Fri, Dec 9
77 °FPassing clouds.6 mph83%29.89 "HgN/A
4:00 am77 °FPassing clouds.2 mph83%29.89 "HgN/A
3:00 am77 °FPassing clouds.6 mph83%29.89 "HgN/A
2:00 am77 °FClear.9 mph83%29.89 "Hg10 mi
1:00 am79 °FPassing clouds.9 mph79%29.89 "HgN/A
12:00 am79 °FPassing clouds.12 mph84%29.89 "HgN/A
11:00 pm
Thu, Dec 8
79 °FClear.9 mph79%29.89 "Hg10 mi
10:00 pm79 °FPassing clouds.10 mph79%29.89 "HgN/A
9:00 pm79 °FClear.10 mph79%29.89 "Hg10 mi
8:00 pm79 °FPassing clouds.10 mph79%29.89 "HgN/A
7:00 pm79 °FClear.13 mph79%29.86 "Hg10 mi
6:00 pm81 °FClear.15 mph74%29.86 "Hg10 mi
5:00 pm82 °FSunny.13 mph70%29.83 "Hg10 mi
4:00 pm82 °FSunny.15 mph70%29.83 "Hg10 mi
3:00 pm84 °FSunny.16 mph70%29.83 "Hg10 mi
2:00 pm86 °FSunny.18 mph66%29.86 "Hg10 mi
1:00 pm86 °FSunny.20 mph66%29.86 "Hg10 mi
12:00 pm84 °FPassing clouds.18 mph70%29.89 "HgN/A
11:00 am86 °FScattered clouds.20 mph66%29.92 "HgN/A
10:00 am86 °FScattered clouds.17 mph62%29.92 "HgN/A
9:00 am84 °FScattered clouds.16 mph66%29.92 "HgN/A
8:00 am84 °FScattered clouds.15 mph70%29.92 "HgN/A
7:00 am81 °FPartly sunny.7 mph74%29.92 "HgN/A
Weather by CustomWeather, © 2016

See weather overviewHow to use our weather pages